When you browse on this site, cookies collect data to enhance your experience and personalize the content and advertising you see.
Visit our Privacy Policy to learn more. By continuing to use the site, you agree to this use of cookies and data.
  • In Lithuania
  • List of Countries
  • For 7 days
  • Water Temperature
  • Weather Map
  • Weather Widgets
  • user-avatar
    Login

    Hourly Weather Prutz

    Today, 13 December, Friday

    Time Temperature Precipitation Wind Pressure Humidity
    00:00 -12°C° 0 mm 3 mps 615 mmHg 75%
    01:00 -12°C° 0 mm 4 mps 614 mmHg 74%
    02:00 -12°C° 0 mm 4 mps 614 mmHg 76%
    03:00 -11°C° 0 mm 4 mps 613 mmHg 77%
    04:00 -10°C° 0 mm 4 mps 613 mmHg 79%
    05:00 -10°C° 0 mm 4 mps 612 mmHg 79%
    06:00 -10°C° 0 mm 4 mps 611 mmHg 79%
    07:00 -10°C° 0 mm 4 mps 611 mmHg 79%
    08:00 -10°C° 0.2 mm 4 mps 611 mmHg 82%
    09:00 -9°C° 0.2 mm 4 mps 610 mmHg 84%
    10:00 -8°C° 0.2 mm 4 mps 610 mmHg 87%
    11:00 -7°C° 0.6 mm 3 mps 610 mmHg 88%
    12:00 -5°C° 0.6 mm 2 mps 610 mmHg 90%
    13:00 -2°C° 0.6 mm 1 mps 611 mmHg 91%
    14:00 -2°C° 0.7 mm 1 mps 611 mmHg 91%
    15:00 -3°C° 0.7 mm 1 mps 610 mmHg 90%
    16:00 -3°C° 0.7 mm 1 mps 610 mmHg 90%
    17:00 -4°C° 0.1 mm 1 mps 611 mmHg 90%
    18:00 -7°C° 0.1 mm 2 mps 611 mmHg 91%
    19:00 -7°C° 0.1 mm 2 mps 612 mmHg 92%
    20:00 -8°C° 0.1 mm 2 mps 612 mmHg 91%
    21:00 -8°C° 0.1 mm 2 mps 613 mmHg 90%
    22:00 -9°C° 0.1 mm 2 mps 613 mmHg 89%
    23:00 -9°C° 0.1 mm 2 mps 614 mmHg 89%

    Tomorrow, 14 December, Saturday

    Time Temperature Precipitation Wind Pressure Humidity
    00:00 -9°C° 0.1 mm 2 mps 615 mmHg 89%
    01:00 -10°C° 0.1 mm 3 mps 615 mmHg 88%
    02:00 -12°C° 0 mm 3 mps 615 mmHg 84%
    03:00 -12°C° 0 mm 3 mps 615 mmHg 79%
    04:00 -12°C° 0 mm 3 mps 616 mmHg 75%
    05:00 -9°C° 0.1 mm 3 mps 617 mmHg 74%
    06:00 -8°C° 0.1 mm 3 mps 618 mmHg 74%
    07:00 -6°C° 0.1 mm 3 mps 619 mmHg 73%
    08:00 -5°C° 0.3 mm 3 mps 619 mmHg 78%
    09:00 -4°C° 0.3 mm 3 mps 620 mmHg 83%
    10:00 -2°C° 0.3 mm 3 mps 621 mmHg 88%
    11:00 -1°C° 0.2 mm 3 mps 621 mmHg 89%
    12:00 0°C° 0.2 mm 3 mps 622 mmHg 89%
    13:00 +1°C° 0.2 mm 3 mps 623 mmHg 89%
    14:00 +1°C° 0 mm 3 mps 623 mmHg 88%
    15:00 +1°C° 0 mm 2 mps 623 mmHg 87%
    16:00 -1°C° 0 mm 2 mps 624 mmHg 87%
    17:00 -1°C° 0 mm 2 mps 624 mmHg 84%
    18:00 -1°C° 0 mm 3 mps 624 mmHg 81%
    19:00 -2°C° 0 mm 3 mps 625 mmHg 78%
    20:00 -2°C° 0 mm 3 mps 625 mmHg 74%
    21:00 -2°C° 0 mm 3 mps 625 mmHg 70%
    22:00 -2°C° 0 mm 3 mps 625 mmHg 67%
    23:00 -2°C° 0 mm 3 mps 625 mmHg 66%

    Day after tomorrow, 15 December, Sunday

    Time Temperature Precipitation Wind Pressure Humidity
    00:00 -2°C° 0 mm 3 mps 626 mmHg 65%
    01:00 -2°C° 0 mm 3 mps 626 mmHg 64%
    02:00 -2°C° 0 mm 3 mps 626 mmHg 64%
    03:00 -2°C° 0 mm 3 mps 626 mmHg 64%
    04:00 -4°C° 0 mm 3 mps 626 mmHg 64%
    05:00 -4°C° 0 mm 3 mps 626 mmHg 65%
    06:00 -4°C° 0 mm 3 mps 626 mmHg 65%
    07:00 -4°C° 0 mm 3 mps 627 mmHg 66%
    08:00 -2°C° 0 mm 2 mps 627 mmHg 68%
    09:00 -1°C° 0 mm 2 mps 628 mmHg 70%
    10:00 +1°C° 0 mm 2 mps 629 mmHg 73%
    11:00 +2°C° 0 mm 2 mps 629 mmHg 77%
    12:00 +3°C° 0 mm 2 mps 629 mmHg 82%
    13:00 +5°C° 0 mm 1 mps 629 mmHg 87%
    14:00 +4°C° 0 mm 1 mps 629 mmHg 86%
    15:00 +3°C° 0 mm 1 mps 629 mmHg 84%
    16:00 +1°C° 0 mm 1 mps 629 mmHg 82%
    17:00 -1°C° 0 mm 2 mps 629 mmHg 81%
    18:00 -2°C° 0 mm 2 mps 629 mmHg 79%
    19:00 -3°C° 0 mm 2 mps 629 mmHg 77%
    20:00 -3°C° 0 mm 2 mps 629 mmHg 78%
    21:00 -4°C° 0 mm 3 mps 630 mmHg 78%
    22:00 -4°C° 0 mm 3 mps 630 mmHg 78%
    23:00 -5°C° 0 mm 3 mps 630 mmHg 79%

    16 December, Monday

    Time Temperature Precipitation Wind Pressure Humidity
    00:00 -5°C° 0 mm 3 mps 630 mmHg 79%
    01:00 -5°C° 0 mm 3 mps 630 mmHg 79%
    02:00 -5°C° 0 mm 3 mps 630 mmHg 80%
    03:00 -5°C° 0 mm 4 mps 630 mmHg 80%
    04:00 -5°C° 0 mm 4 mps 630 mmHg 81%
    05:00 -4°C° 0 mm 4 mps 630 mmHg 82%
    06:00 -4°C° 0 mm 4 mps 630 mmHg 83%
    07:00 -3°C° 0 mm 4 mps 630 mmHg 83%
    08:00 -2°C° 0 mm 4 mps 631 mmHg 84%
    09:00 -2°C° 0 mm 4 mps 631 mmHg 84%
    10:00 -1°C° 0 mm 4 mps 631 mmHg 84%
    11:00 0°C° 0 mm 4 mps 631 mmHg 86%
    12:00 +1°C° 0 mm 4 mps 631 mmHg 87%
    13:00 +3°C° 0 mm 4 mps 631 mmHg 89%
    14:00 +1°C° 0 mm 4 mps 631 mmHg 88%
    15:00 +1°C° 0 mm 4 mps 631 mmHg 87%
    16:00 +1°C° 0 mm 4 mps 630 mmHg 87%
    17:00 +1°C° 0 mm 4 mps 630 mmHg 87%
    18:00 0°C° 0 mm 4 mps 630 mmHg 87%
    19:00 0°C° 0 mm 4 mps 630 mmHg 87%
    20:00 0°C° 0 mm 4 mps 630 mmHg 87%
    21:00 0°C° 0 mm 4 mps 630 mmHg 87%
    22:00 0°C° 0 mm 4 mps 630 mmHg 87%
    23:00 0°C° 0 mm 5 mps 630 mmHg 87%

    17 December, Tuesday

    Time Temperature Precipitation Wind Pressure Humidity
    00:00 0°C° 0 mm 5 mps 630 mmHg 87%
    01:00 0°C° 0 mm 5 mps 630 mmHg 87%
    02:00 0°C° 0 mm 5 mps 630 mmHg 87%
    03:00 0°C° 0 mm 5 mps 630 mmHg 86%
    04:00 0°C° 0 mm 5 mps 630 mmHg 86%
    05:00 0°C° 0 mm 5 mps 630 mmHg 86%
    06:00 0°C° 0 mm 4 mps 630 mmHg 86%
    07:00 0°C° 0 mm 4 mps 630 mmHg 86%
    08:00 0°C° 0 mm 4 mps 630 mmHg 86%
    09:00 0°C° 0 mm 4 mps 631 mmHg 87%
    10:00 +1°C° 0 mm 4 mps 631 mmHg 87%
    11:00 +1°C° 0 mm 4 mps 631 mmHg 89%
    12:00 +3°C° 0 mm 4 mps 631 mmHg 91%
    13:00 +3°C° 0 mm 3 mps 631 mmHg 92%
    14:00 +3°C° 0 mm 3 mps 631 mmHg 91%
    15:00 +3°C° 0 mm 3 mps 632 mmHg 90%
    16:00 +2°C° 0 mm 3 mps 632 mmHg 89%
    17:00 +2°C° 0 mm 3 mps 632 mmHg 88%
    18:00 +1°C° 0 mm 3 mps 632 mmHg 88%
    19:00 +1°C° 0 mm 3 mps 632 mmHg 88%
    20:00 +1°C° 0 mm 3 mps 632 mmHg 88%
    21:00 +1°C° 0 mm 3 mps 633 mmHg 88%
    22:00 +1°C° 0 mm 3 mps 633 mmHg 88%
    23:00 +1°C° 0 mm 3 mps 633 mmHg 88%

    18 December, Wednesday

    Time Temperature Precipitation Wind Pressure Humidity
    00:00 +1°C° 0 mm 3 mps 633 mmHg 88%
    01:00 +1°C° 0 mm 3 mps 634 mmHg 88%
    02:00 +1°C° 0 mm 3 mps 634 mmHg 88%
    03:00 +1°C° 0 mm 3 mps 634 mmHg 88%
    04:00 +1°C° 0 mm 2 mps 634 mmHg 88%
    05:00 +1°C° 0 mm 2 mps 634 mmHg 88%
    06:00 +1°C° 0 mm 2 mps 634 mmHg 87%
    07:00 +1°C° 0 mm 2 mps 634 mmHg 87%
    08:00 +2°C° 0 mm 2 mps 634 mmHg 87%
    09:00 +3°C° 0 mm 2 mps 635 mmHg 87%
    10:00 +3°C° 0 mm 2 mps 635 mmHg 87%
    11:00 +4°C° 0 mm 2 mps 635 mmHg 90%
    12:00 +4°C° 0 mm 2 mps 635 mmHg 93%
    13:00 +4°C° 0 mm 2 mps 635 mmHg 95%
    14:00 +4°C° 0 mm 2 mps 635 mmHg 93%
    15:00 +4°C° 0 mm 2 mps 635 mmHg 91%
    16:00 +3°C° 0 mm 2 mps 635 mmHg 89%
    17:00 +3°C° 0 mm 2 mps 635 mmHg 86%
    18:00 +2°C° 0 mm 2 mps 634 mmHg 84%
    19:00 +2°C° 0 mm 2 mps 634 mmHg 81%
    20:00 +2°C° 0 mm 2 mps 634 mmHg 78%
    21:00 +1°C° 0 mm 2 mps 634 mmHg 75%
    22:00 +1°C° 0 mm 2 mps 634 mmHg 72%
    23:00 +1°C° 0 mm 2 mps 634 mmHg 71%
    Show more